SBIRS GEO-6 (USA 336)

Last updated on Sat Jul 05 2025 00:02:48 GMT+0000 (Coordinated Universal Time)

1 53355U 22092A 25185.63720095 -.00000275 00000+0 00000+0 0 9992 2 53355 3.8837 313.1142 0001842 144.7039 193.4616 1.00272167 10748
UTC large
Height (km)
Speed (km/s)
/
Latitude / Longitude
Inclination (degrees)
Orbital Period (minutes)
Azimuth
Elevation
Range (km)
Doppler Factor

Next 0 passes for location: London (51.5072 / 0.1276)

Sorry there are no passes over London.